Tracking 19576 objects as of 17-Feb-2019
HD Live streaming from Space Station
objects crossing your sky now

ALE-1

Track ALE-1 now!
10-day predictions


NORAD ID: 43938
Int'l Code: 2019-003G
Perigee: 484.9 km
Apogee: 521.5 km
Inclination: 97.3 °
Period: 94.5 minutes
Semi major axis: 6874 km
RCS: Unknown
Launch date: January 18, 2019
Source: Japan (JPN)
Launch site: KAGOSHIMA SPACE CENTER UNIVERSITY OF TOKYO (KSCUT)
aabbcc
Your satellite tracking list
Your tracking list is empty




NASA's NSSDC Master Catalog

Two Line Element Set (TLE):
1 43938U 19003G   19048.44771242  .00000310  00000-0  15915-4 0  9992
2 43938  97.3004 109.9061 0026655 138.8687 341.0131 15.23240808  4621
Source of the keplerian elements: AFSPC